Weather History for Aurora, OR

Change the Weather History Date:

Friday, February 1, 2013

  Actual Average Record
Temperature  
Mean Temperature 46 °F -  
Max Temperature 54 °F - 55 °F (2000)
Min Temperature 38 °F - 25 °F (2007)
Degree Days  
Heating Degree Days 19    
Month to date heating degree days 19  
Since 1 July heating degree days 2549  
Cooling Degree Days 0    
Month to date cooling degree days 0  
Year to date cooling degree days 0  
Moisture  
Dew Point 42 °F    
Average Humidity 83    
Maximum Humidity 100    
Minimum Humidity 66    
Precipitation  
Precipitation 0.00 in - 0.75 in (1963)
Month to date precipitation 0.00  
Year to date precipitation 2.01  
Sea Level Pressure  
Sea Level Pressure 30.34 in    
Wind  
Wind Speed 4 mph (NNE)    
Max Wind Speed 12 mph    
Max Gust Speed 15 mph    
Visibility 7 miles    
Events Fog    
T = Trace of Precipitation, MM = Missing Value Source: NWS Daily Summary

Daily Weather History Graph

Daily Weather History Graph

Search for Another Location

Airport:

Trip Planner

Search our weather history database for the weather conditions in past years. The results will help you decide how hot, cold, wet, or windy it might be!

Date:

Astronomy

Feb. 01, 2013 Rise Set
Actual Time 7:31 AM PST 5:18 PM PST
Civil Twilight 6:59 AM PST 5:50 PM PST
Nautical Twilight 6:24 AM PST 6:25 PM PST
Astronomical Twilight 5:49 AM PST 7:00 PM PST
Moon 11:53 PM PST (2/1) 9:48 AM PST (2/1)
Length of Visible Light 10h 50m
Length of Day
9h 47m
Waning Gibbous, 69% of the Moon is Illuminated
Feb 1
Waning Gibbous
Feb 3
Last Quarter
Feb 9
New
Feb 17
First Quarter
Feb 25
Full

Hourly Weather History & Observations

Time (PST) Temp. Windchill Dew Point Humidity Pressure Visibility Wind Dir Wind Speed Gust Speed Precip Events Conditions
12:53 AM 48.0 °F - 44.1 °F 86% 30.37 in 10.0 mi Calm Calm - N/A   Overcast
1:45 AM 46.4 °F - 42.8 °F 87% 30.36 in 10.0 mi Calm Calm - N/A   Overcast
1:53 AM 46.0 °F - 44.1 °F 93% 30.37 in 10.0 mi Calm Calm - N/A   Mostly Cloudy
2:03 AM 46.4 °F - 44.6 °F 93% 30.36 in 10.0 mi Calm Calm - N/A   Mostly Cloudy
2:26 AM 44.6 °F - 44.6 °F 100% 30.36 in 10.0 mi Calm Calm - N/A   Mostly Cloudy
2:53 AM 44.1 °F - 43.0 °F 96% 30.36 in 10.0 mi Calm Calm - N/A   Overcast
3:16 AM 42.8 °F - 42.8 °F 100% 30.35 in 10.0 mi Calm Calm - N/A   Overcast
3:53 AM 43.0 °F - 42.1 °F 97% 30.36 in 9.0 mi Calm Calm - N/A   Mostly Cloudy
4:09 AM 42.8 °F - 42.8 °F 100% 30.36 in 8.0 mi Calm Calm - N/A   Overcast
4:21 AM 42.8 °F - 41.0 °F 93% 30.35 in 2.5 mi Calm Calm - N/A   Overcast
4:39 AM 41.0 °F - 41.0 °F 100% 30.36 in 1.8 mi Calm Calm - N/A   Mostly Cloudy
4:53 AM 39.9 °F - 39.9 °F 100% 30.36 in 1.5 mi Calm Calm - N/A   Mostly Cloudy
5:04 AM 39.2 °F 37.0 °F 39.2 °F 100% 30.36 in 3.0 mi NE 3.5 mph - N/A   Mostly Cloudy
5:27 AM 39.2 °F 35.9 °F 39.2 °F 100% 30.35 in 1.8 mi NE 4.6 mph - N/A   Mostly Cloudy
5:32 AM 41.0 °F - 41.0 °F 100% 30.35 in 0.8 mi Calm Calm - N/A   Mostly Cloudy
5:45 AM 42.8 °F - 42.8 °F 100% 30.35 in 1.8 mi Calm Calm - N/A   Overcast
5:48 AM 42.8 °F - 42.8 °F 100% 30.35 in 3.0 mi Calm Calm - N/A   Overcast
5:53 AM 42.1 °F - 42.1 °F 100% 30.36 in 7.0 mi Calm Calm - N/A   Overcast
6:10 AM 42.8 °F - 42.8 °F 100% 30.35 in 2.5 mi Calm Calm - N/A   Overcast
6:14 AM 42.8 °F - 42.8 °F 100% 30.35 in 1.0 mi Calm Calm - N/A   Overcast
6:21 AM 42.8 °F - 42.8 °F 100% 30.35 in 0.5 mi Calm Calm - N/A Fog Fog
6:40 AM 41.0 °F - 41.0 °F 100% 30.35 in 0.2 mi Calm Calm - N/A Fog Fog
6:46 AM 42.8 °F - 41.0 °F 93% 30.35 in 0.5 mi Calm Calm - N/A Fog Fog
6:53 AM 41.0 °F - 39.9 °F 96% 30.35 in 0.2 mi Calm Calm - N/A Fog Fog
7:53 AM 43.0 °F - 43.0 °F 100% 30.35 in 0.2 mi Calm Calm - N/A Fog Fog
8:31 AM 44.6 °F 43.1 °F 44.6 °F 100% 30.36 in 0.8 mi NNE 3.5 mph - N/A   Mist
8:37 AM 44.6 °F 41.4 °F 44.6 °F 100% 30.36 in 2.0 mi NNE 5.8 mph - N/A   Overcast
8:45 AM 44.6 °F 41.4 °F 44.6 °F 100% 30.36 in 6.0 mi NNE 5.8 mph - N/A   Overcast
8:53 AM 44.1 °F 42.5 °F 44.1 °F 100% 30.37 in 8.0 mi NNE 3.5 mph - N/A   Overcast
9:53 AM 45.0 °F 41.2 °F 44.1 °F 97% 30.38 in 9.0 mi NNE 6.9 mph - N/A   Overcast
10:00 AM 46.4 °F 42.4 °F 44.6 °F 93% 30.37 in 10.0 mi NE 8.1 mph - N/A   Overcast
10:30 AM 48.2 °F - 44.6 °F 87% 30.37 in 10.0 mi North 6.9 mph - N/A   Scattered Clouds
10:51 AM 48.2 °F - 44.6 °F 87% 30.37 in 10.0 mi North 6.9 mph - N/A   Mostly Cloudy
10:53 AM 48.9 °F - 44.1 °F 83% 30.38 in 10.0 mi North 5.8 mph - N/A   Mostly Cloudy
11:53 AM 51.1 °F - 44.1 °F 77% 30.36 in 10.0 mi NNE 10.4 mph - N/A   Mostly Cloudy
12:32 PM 51.8 °F - 42.8 °F 71% 30.34 in 10.0 mi NE 8.1 mph - N/A   Scattered Clouds
12:53 PM 51.1 °F - 43.0 °F 74% 30.34 in 10.0 mi NE 10.4 mph - N/A   Partly Cloudy
1:53 PM 52.0 °F - 43.0 °F 71% 30.31 in 10.0 mi North 9.2 mph - N/A   Clear
2:53 PM 53.1 °F - 43.0 °F 69% 30.30 in 10.0 mi NNE 9.2 mph - N/A   Clear
3:53 PM 53.1 °F - 43.0 °F 69% 30.29 in 10.0 mi North 10.4 mph - N/A   Clear
4:53 PM 51.1 °F - 43.0 °F 74% 30.28 in 10.0 mi NNE 5.8 mph - N/A   Clear
5:53 PM 46.9 °F - 42.1 °F 83% 30.28 in 10.0 mi Calm Calm - N/A   Clear
6:53 PM 46.0 °F 44.8 °F 41.0 °F 83% 30.29 in 10.0 mi North 3.5 mph - N/A   Clear
7:53 PM 45.0 °F 40.6 °F 42.1 °F 90% 30.29 in 10.0 mi North 8.1 mph - N/A   Clear
8:53 PM 45.0 °F 41.2 °F 41.0 °F 86% 30.29 in 10.0 mi North 6.9 mph - N/A   Clear
9:53 PM 42.1 °F 37.7 °F 39.0 °F 89% 30.29 in 10.0 mi North 6.9 mph - N/A   Clear
10:53 PM 41.0 °F 37.1 °F 37.9 °F 89% 30.28 in 10.0 mi North 5.8 mph - N/A   Clear
11:53 PM 37.9 °F 35.5 °F 37.0 °F 97% 30.29 in 10.0 mi SE 3.5 mph - N/A   Clear